This is the latest recevied weather packets stored in our database for station/object JO1YDG-13. If no packets are shown the sender has not sent any weather packets the latest 10 day(s).
| Time | Temp. | Humidity | Pressure | Rain* | Wind** | Luminosity | Snow |
|---|---|---|---|---|---|---|---|
| 1777708656 | 25.56° C | 37% | 978.8 hPa | 0 mm | - | - | - |
| 1777708356 | 26.11° C | 36% | 978.8 hPa | 0 mm | - | - | - |
| 1777708055 | 26.11° C | 36% | 978.5 hPa | 0 mm | - | - | - |
| 1777707756 | 26.67° C | 35% | 978.5 hPa | 0 mm | - | - | - |
| 1777707456 | 26.67° C | 33% | 978.5 hPa | 0 mm | - | - | - |
| 1777707155 | 26.67° C | 35% | 978.5 hPa | 0 mm | - | - | - |
| 1777706855 | 26.67° C | 34% | 978.4 hPa | 0 mm | - | - | - |
| 1777706555 | 26.67° C | 35% | 978.2 hPa | 0 mm | - | - | - |
| 1777706256 | 26.67° C | 35% | 978.2 hPa | 0 mm | - | - | - |
| 1777705956 | 26.67° C | 35% | 978 hPa | 0 mm | - | - | - |
| 1777705656 | 26.67° C | 35% | 978 hPa | 0 mm | - | - | - |
| 1777705356 | 26.67° C | 33% | 977.8 hPa | 0 mm | - | - | - |
| 1777705056 | 27.22° C | 33% | 977.8 hPa | 0 mm | - | - | - |
| 1777704756 | 27.22° C | 32% | 977.8 hPa | 0 mm | - | - | - |
| 1777704455 | 27.78° C | 29% | 977.6 hPa | 0 mm | - | - | - |
| 1777704155 | 27.78° C | 25% | 977.6 hPa | 0 mm | - | - | - |
| 1777703855 | 28.33° C | 24% | 977.6 hPa | 0 mm | - | - | - |
| 1777703555 | 28.33° C | 22% | 977.6 hPa | 0 mm | - | - | - |
| 1777703255 | 28.89° C | 23% | 977.5 hPa | 0 mm | - | - | - |
| 1777702956 | 28.33° C | 23% | 977.5 hPa | 0 mm | - | - | - |
| 1777702656 | 28.89° C | 22% | 977.5 hPa | 0 mm | - | - | - |
| 1777702356 | 28.89° C | 23% | 977.3 hPa | 0 mm | - | - | - |
| 1777702056 | 29.44° C | 23% | 977.3 hPa | 0 mm | - | - | - |
| 1777701756 | 28.89° C | 23% | 977.4 hPa | 0 mm | - | - | - |
| 1777701455 | 28.33° C | 23% | 977.4 hPa | 0 mm | - | - | - |
* Rain latest hour (hover to see other rain measurements)
** Current wind speed in m/s (hover to see current wind gust speed)